Location: Poughquag
(41.6090°N, 73.6820°W)
Time: 02:38:02
(UTC-04:00)

Transit 2A Rocket - Pass Details

Date: 01 June 2020
Orbit: 584 x 919 km, 66.7° (Epoch: 06 July)

Event Time Altitude Azimuth Distance (km) Brightness Sun altitude
Rises 00:50:28 0° 267° (W) 3,152 8.2 -26.3°
Reaches altitude 10° 00:53:56 10° 292° (WNW) 2,310 7.7 -26.3°
Maximum altitude 00:56:45 14° 325° (NW) 2,085 7.9 -26.3°
Drops below altitude 10° 00:59:42 10° 357° (N) 2,434 8.6 -26.3°
Sets 01:03:32 0° 21° (NNE) 3,442 9.5 -26.2°
